When you browse on this site, cookies collect data to enhance your experience and personalize the content and advertising you see.
Visit our Privacy Policy to learn more. By continuing to use the site, you agree to this use of cookies and data.
  • în România
  • Lista ţărilor
  • Pe 7 zile
  • Temperatura apei
  • Hartă satelitară
  • Meteo pe hartă
  • Widget-uri
  • user-avatar
    Intrare

    Meteo pe oră la Lingolsheim

    Astăzi, 23 Aprilie, Marţi

    Timp Temperatura Precipitaţii Vânt Presiune Umiditate
    00:00 +14°C° 0 mm 3 m/s 737 mmHg 64%
    01:00 +14°C° 0 mm 2 m/s 736 mmHg 66%
    02:00 +13°C° 0 mm 2 m/s 736 mmHg 70%
    03:00 +13°C° 0 mm 2 m/s 736 mmHg 73%
    04:00 +12°C° 0 mm 1 m/s 735 mmHg 77%
    05:00 +12°C° 0 mm 1 m/s 735 mmHg 77%
    06:00 +13°C° 0 mm 1 m/s 735 mmHg 77%
    07:00 +13°C° 0 mm 1 m/s 735 mmHg 77%
    08:00 +15°C° 0 mm 1 m/s 735 mmHg 71%
    09:00 +18°C° 0 mm 1 m/s 735 mmHg 65%
    10:00 +20°C° 0 mm 1 m/s 735 mmHg 59%
    11:00 +21°C° 0 mm 1 m/s 734 mmHg 56%
    12:00 +22°C° 0 mm 1 m/s 734 mmHg 52%
    13:00 +24°C° 0 mm 1 m/s 734 mmHg 49%
    14:00 +24°C° 0.1 mm 1 m/s 734 mmHg 51%
    15:00 +24°C° 0.1 mm 2 m/s 734 mmHg 53%
    16:00 +23°C° 0.1 mm 2 m/s 733 mmHg 56%
    17:00 +21°C° 0.4 mm 2 m/s 733 mmHg 63%
    18:00 +20°C° 0.4 mm 2 m/s 733 mmHg 70%
    19:00 +18°C° 0.4 mm 2 m/s 734 mmHg 77%
    20:00 +17°C° 0.1 mm 2 m/s 734 mmHg 79%
    21:00 +17°C° 0.1 mm 2 m/s 734 mmHg 81%
    22:00 +16°C° 0.1 mm 2 m/s 735 mmHg 83%
    23:00 +16°C° 0 mm 2 m/s 735 mmHg 82%

    Mâine, 24 Aprilie, Miercuri

    Timp Temperatura Precipitaţii Vânt Presiune Umiditate
    00:00 +16°C° 0 mm 2 m/s 736 mmHg 82%
    01:00 +15°C° 0 mm 2 m/s 736 mmHg 82%
    02:00 +15°C° 0.2 mm 1 m/s 737 mmHg 83%
    03:00 +15°C° 0.2 mm 1 m/s 737 mmHg 85%
    04:00 +15°C° 0.2 mm 1 m/s 737 mmHg 86%
    05:00 +15°C° 0.1 mm 1 m/s 738 mmHg 85%
    06:00 +15°C° 0.1 mm 1 m/s 738 mmHg 84%
    07:00 +16°C° 0.1 mm 1 m/s 738 mmHg 83%
    08:00 +18°C° 0 mm 1 m/s 739 mmHg 76%
    09:00 +20°C° 0 mm 1 m/s 739 mmHg 69%
    10:00 +21°C° 0 mm 1 m/s 739 mmHg 62%
    11:00 +21°C° 0.5 mm 2 m/s 739 mmHg 61%
    12:00 +21°C° 0.5 mm 2 m/s 739 mmHg 60%
    13:00 +22°C° 0.5 mm 3 m/s 739 mmHg 59%
    14:00 +20°C° 0.6 mm 4 m/s 739 mmHg 66%
    15:00 +17°C° 0.6 mm 6 m/s 739 mmHg 73%
    16:00 +15°C° 0.6 mm 8 m/s 739 mmHg 81%
    17:00 +14°C° 1.4 mm 5 m/s 740 mmHg 82%
    18:00 +12°C° 1.4 mm 3 m/s 741 mmHg 83%
    19:00 +12°C° 1.4 mm 1 m/s 742 mmHg 84%
    20:00 +12°C° 0.1 mm 1 m/s 742 mmHg 85%
    21:00 +10°C° 0.1 mm 2 m/s 743 mmHg 86%
    22:00 +10°C° 0.1 mm 2 m/s 744 mmHg 87%
    23:00 +10°C° 0 mm 2 m/s 744 mmHg 87%

    Poimâine, 25 Aprilie, Joi

    Timp Temperatura Precipitaţii Vânt Presiune Umiditate
    00:00 +10°C° 0 mm 1 m/s 743 mmHg 87%
    01:00 +10°C° 0 mm 1 m/s 743 mmHg 87%
    02:00 +10°C° 0 mm 1 m/s 743 mmHg 87%
    03:00 +10°C° 0 mm 1 m/s 743 mmHg 87%
    04:00 +10°C° 0 mm 1 m/s 743 mmHg 87%
    05:00 +11°C° 0 mm 1 m/s 743 mmHg 86%
    06:00 +11°C° 0 mm 1 m/s 743 mmHg 85%
    07:00 +12°C° 0 mm 1 m/s 743 mmHg 84%
    08:00 +14°C° 0 mm 1 m/s 744 mmHg 77%
    09:00 +16°C° 0 mm 1 m/s 744 mmHg 70%
    10:00 +19°C° 0 mm 1 m/s 744 mmHg 63%
    11:00 +20°C° 0 mm 1 m/s 744 mmHg 58%
    12:00 +20°C° 0 mm 2 m/s 744 mmHg 52%
    13:00 +21°C° 0 mm 2 m/s 744 mmHg 47%
    14:00 +21°C° 0 mm 3 m/s 744 mmHg 49%
    15:00 +22°C° 0 mm 3 m/s 743 mmHg 51%
    16:00 +22°C° 0 mm 4 m/s 743 mmHg 53%
    17:00 +20°C° 0.2 mm 3 m/s 743 mmHg 59%
    18:00 +19°C° 0.2 mm 2 m/s 743 mmHg 66%
    19:00 +18°C° 0.2 mm 2 m/s 743 mmHg 72%
    20:00 +16°C° 0.5 mm 2 m/s 743 mmHg 76%
    21:00 +15°C° 0.5 mm 2 m/s 744 mmHg 79%
    22:00 +13°C° 0.5 mm 3 m/s 745 mmHg 83%
    23:00 +12°C° 0 mm 3 m/s 745 mmHg 85%

    26 Aprilie, Vineri

    Timp Temperatura Precipitaţii Vânt Presiune Umiditate
    00:00 +11°C° 0 mm 3 m/s 745 mmHg 87%
    01:00 +10°C° 0 mm 3 m/s 746 mmHg 88%
    02:00 +10°C° 0.1 mm 3 m/s 746 mmHg 89%
    03:00 +9°C° 0.1 mm 3 m/s 746 mmHg 89%
    04:00 +8°C° 0.1 mm 3 m/s 746 mmHg 89%
    05:00 +8°C° 0.7 mm 2 m/s 747 mmHg 89%
    06:00 +8°C° 0.7 mm 2 m/s 747 mmHg 90%
    07:00 +8°C° 0.7 mm 2 m/s 748 mmHg 90%
    08:00 +8°C° 0.7 mm 2 m/s 749 mmHg 89%
    09:00 +9°C° 0.7 mm 2 m/s 749 mmHg 88%
    10:00 +9°C° 0.7 mm 2 m/s 750 mmHg 87%
    11:00 +10°C° 0.2 mm 3 m/s 750 mmHg 83%
    12:00 +10°C° 0.2 mm 3 m/s 751 mmHg 80%
    13:00 +11°C° 0.2 mm 3 m/s 751 mmHg 77%
    14:00 +12°C° 0 mm 4 m/s 751 mmHg 72%
    15:00 +12°C° 0 mm 4 m/s 751 mmHg 68%
    16:00 +13°C° 0 mm 4 m/s 751 mmHg 63%
    17:00 +13°C° 0 mm 4 m/s 751 mmHg 67%
    18:00 +12°C° 0 mm 3 m/s 751 mmHg 71%
    19:00 +12°C° 0 mm 3 m/s 750 mmHg 74%
    20:00 +11°C° 0 mm 3 m/s 751 mmHg 78%
    21:00 +10°C° 0 mm 3 m/s 751 mmHg 81%
    22:00 +9°C° 0 mm 3 m/s 752 mmHg 85%
    23:00 +9°C° 0 mm 3 m/s 752 mmHg 85%

    27 Aprilie, Sâmbătă

    Timp Temperatura Precipitaţii Vânt Presiune Umiditate
    00:00 +9°C° 0 mm 3 m/s 752 mmHg 85%
    01:00 +8°C° 0 mm 4 m/s 752 mmHg 86%
    02:00 +8°C° 0.3 mm 4 m/s 752 mmHg 87%
    03:00 +9°C° 0.3 mm 3 m/s 752 mmHg 89%
    04:00 +9°C° 0.3 mm 3 m/s 753 mmHg 90%
    05:00 +8°C° 0.2 mm 4 m/s 753 mmHg 88%
    06:00 +8°C° 0.2 mm 4 m/s 753 mmHg 85%
    07:00 +7°C° 0.2 mm 4 m/s 754 mmHg 83%
    08:00 +8°C° 0 mm 5 m/s 754 mmHg 76%
    09:00 +9°C° 0 mm 5 m/s 754 mmHg 69%
    10:00 +10°C° 0 mm 6 m/s 754 mmHg 61%
    11:00 +11°C° 0 mm 6 m/s 754 mmHg 60%
    12:00 +13°C° 0 mm 6 m/s 753 mmHg 58%
    13:00 +14°C° 0 mm 7 m/s 753 mmHg 56%
    14:00 +14°C° 0.1 mm 7 m/s 753 mmHg 59%
    15:00 +12°C° 0.1 mm 7 m/s 752 mmHg 63%
    16:00 +12°C° 0.1 mm 7 m/s 752 mmHg 66%
    17:00 +11°C° 0.7 mm 7 m/s 751 mmHg 72%
    18:00 +10°C° 0.7 mm 6 m/s 751 mmHg 78%
    19:00 +9°C° 0.7 mm 6 m/s 751 mmHg 85%
    20:00 +8°C° 0.3 mm 6 m/s 751 mmHg 84%
    21:00 +7°C° 0.3 mm 5 m/s 752 mmHg 83%
    22:00 +5°C° 0.3 mm 5 m/s 752 mmHg 83%
    23:00 +5°C° 0 mm 5 m/s 753 mmHg 82%

    28 Aprilie, Duminică

    Timp Temperatura Precipitaţii Vânt Presiune Umiditate
    00:00 +4°C° 0 mm 6 m/s 753 mmHg 82%
    01:00 +4°C° 0 mm 7 m/s 754 mmHg 82%
    02:00 +4°C° 0.2 mm 7 m/s 754 mmHg 83%
    03:00 +4°C° 0.2 mm 6 m/s 755 mmHg 83%
    04:00 +5°C° 0.2 mm 6 m/s 755 mmHg 84%
    05:00 +5°C° 0.2 mm 6 m/s 755 mmHg 85%
    06:00 +6°C° 0.2 mm 5 m/s 756 mmHg 86%
    07:00 +6°C° 0.2 mm 5 m/s 756 mmHg 88%
    08:00 +7°C° 0.3 mm 5 m/s 757 mmHg 84%
    09:00 +7°C° 0.3 mm 5 m/s 757 mmHg 81%
    10:00 +8°C° 0.3 mm 5 m/s 757 mmHg 78%
    11:00 +10°C° 0.1 mm 4 m/s 757 mmHg 72%
    12:00 +11°C° 0.1 mm 4 m/s 757 mmHg 67%
    13:00 +12°C° 0.1 mm 4 m/s 757 mmHg 61%
    14:00 +12°C° 0.1 mm 4 m/s 756 mmHg 59%
    15:00 +13°C° 0.1 mm 3 m/s 756 mmHg 57%
    16:00 +13°C° 0.1 mm 3 m/s 756 mmHg 55%
    17:00 +12°C° 0 mm 3 m/s 756 mmHg 60%
    18:00 +13°C° 0 mm 2 m/s 756 mmHg 65%
    19:00 +12°C° 0 mm 2 m/s 756 mmHg 70%
    20:00 +11°C° 0 mm 1 m/s 756 mmHg 74%
    21:00 +10°C° 0 mm 1 m/s 756 mmHg 78%
    22:00 +9°C° 0 mm 1 m/s 756 mmHg 81%
    23:00 +8°C° 0 mm 1 m/s 756 mmHg 83%
    Arată mai mult